Weather History for Hulett, WY

Change the Weather History Date:

Tuesday, October 1, 2013

  Actual Average (KEFC) Record (KEFC)
Temperature  
Mean Temperature 55 °F -  
Max Temperature 69 °F 73 °F 94 °F (1953)
Min Temperature 41 °F 38 °F 19 °F (1985)
Degree Days  
Heating Degree Days 10    
Growing Degree Days 5 (Base 50)    
Moisture  
Dew Point 32 °F    
Average Humidity 47    
Maximum Humidity 70    
Minimum Humidity 25    
Precipitation  
Precipitation 0.00 in - - ()
Sea Level Pressure  
Sea Level Pressure 29.95 in    
Wind  
Wind Speed 7 mph (SSW)    
Max Wind Speed 14 mph    
Max Gust Speed 23 mph    
Visibility 10 miles    
Events      
Averages and records for this station are not official NWS values.
T = Trace of Precipitation, MM = Missing Value Source: NWS Daily Summary

Daily Weather History Graph

Daily Weather History Graph

Search for Another Location

Airport:

Trip Planner

Search our weather history database for the weather conditions in past years. The results will help you decide how hot, cold, wet, or windy it might be!

Date:

Astronomy

Oct. 01, 2013 Rise Set
Actual Time 6:56 AM MDT 6:38 PM MDT
Civil Twilight 6:27 AM MDT 7:07 PM MDT
Nautical Twilight 5:53 AM MDT 7:41 PM MDT
Astronomical Twilight 5:19 AM MDT 8:15 PM MDT
Moon 3:26 AM MDT (10/1) 4:49 PM MDT (10/1)
Length of Visible Light 12h 39m
Length of Day
11h 41m
Waning Crescent, 11% of the Moon is Illuminated
Oct 1
Waning Crescent
Oct 4
New
Oct 11
First Quarter
Oct 18
Full
Oct 26
Last Quarter

Hourly Weather History & Observations

Time (MDT) Temp. Windchill Dew Point Humidity Pressure Visibility Wind Dir Wind Speed Gust Speed Precip Events Conditions
12:15 AM 48.2 °F - 33.8 °F 58% 29.91 in 10.0 mi SW 8.1 mph - N/A   Overcast
12:35 AM 50.0 °F - 33.8 °F 54% 29.91 in 10.0 mi SW 9.2 mph - N/A   Overcast
12:55 AM 48.2 °F - 33.8 °F 58% 29.92 in 10.0 mi SW 9.2 mph - N/A   Mostly Cloudy
1:15 AM 46.4 °F 41.9 °F 32.0 °F 57% 29.92 in 10.0 mi SW 9.2 mph - N/A   Mostly Cloudy
1:35 AM 48.2 °F - 33.8 °F 58% 29.93 in 10.0 mi SW 9.2 mph - N/A   Scattered Clouds
1:55 AM 50.0 °F - 33.8 °F 54% 29.95 in 10.0 mi SW 8.1 mph - N/A   Mostly Cloudy
2:15 AM 50.0 °F - 33.8 °F 54% 29.95 in 10.0 mi SW 8.1 mph - N/A   Overcast
2:35 AM 46.4 °F 42.4 °F 33.8 °F 62% 29.95 in 10.0 mi SSW 8.1 mph - N/A   Mostly Cloudy
2:55 AM 44.6 °F 40.2 °F 33.8 °F 66% 29.95 in 10.0 mi SSW 8.1 mph - N/A   Scattered Clouds
3:15 AM 42.8 °F 38.0 °F 33.8 °F 70% 29.96 in 10.0 mi SSW 8.1 mph - N/A   Clear
3:35 AM 42.8 °F 38.0 °F 32.0 °F 66% 29.97 in 10.0 mi SSW 8.1 mph - N/A   Clear
3:55 AM 42.8 °F 37.5 °F 32.0 °F 66% 29.97 in 10.0 mi SSW 9.2 mph - N/A   Clear
4:15 AM 44.6 °F 40.2 °F 33.8 °F 66% 29.97 in 10.0 mi SSW 8.1 mph - N/A   Scattered Clouds
4:35 AM 46.4 °F 42.4 °F 33.8 °F 62% 29.99 in 10.0 mi SSW 8.1 mph - N/A   Overcast
4:55 AM 46.4 °F 42.4 °F 33.8 °F 62% 29.99 in 10.0 mi SSW 8.1 mph - N/A   Overcast
5:15 AM 46.4 °F 42.9 °F 33.8 °F 62% 29.99 in 10.0 mi SSW 6.9 mph - N/A   Overcast
5:35 AM 46.4 °F 42.9 °F 33.8 °F 62% 30.00 in 10.0 mi SSW 6.9 mph - N/A   Overcast
5:55 AM 44.6 °F 41.4 °F 33.8 °F 66% 30.00 in 10.0 mi SSW 5.8 mph - N/A   Mostly Cloudy
6:15 AM 42.8 °F 38.6 °F 32.0 °F 66% 30.01 in 10.0 mi SSW 6.9 mph - N/A   Scattered Clouds
6:35 AM 42.8 °F 38.6 °F 32.0 °F 66% 30.01 in 10.0 mi SSW 6.9 mph - N/A   Clear
6:55 AM 41.0 °F 35.8 °F 32.0 °F 70% 30.02 in 10.0 mi SSW 8.1 mph - N/A   Clear
7:15 AM 41.0 °F 37.1 °F 32.0 °F 70% 30.02 in 10.0 mi SSW 5.8 mph - N/A   Clear
7:35 AM 41.0 °F 35.2 °F 32.0 °F 70% 30.02 in 10.0 mi South 9.2 mph - N/A   Clear
7:55 AM 44.6 °F 40.7 °F 32.0 °F 61% 30.03 in 10.0 mi SSW 6.9 mph - N/A   Clear
8:15 AM 46.4 °F 42.9 °F 32.0 °F 57% 30.03 in 10.0 mi SSW 6.9 mph - N/A   Clear
8:35 AM 50.0 °F - 32.0 °F 50% 30.03 in 10.0 mi SSW 5.8 mph - N/A   Clear
8:55 AM 51.8 °F - 32.0 °F 47% 30.04 in 10.0 mi SSW 4.6 mph - N/A   Clear
9:15 AM 53.6 °F - 30.2 °F 41% 30.04 in 10.0 mi SSW 4.6 mph - N/A   Clear
9:35 AM 53.6 °F - 28.4 °F 38% 30.04 in 10.0 mi SSW 5.8 mph - N/A   Clear
9:55 AM 51.8 °F - 35.6 °F 54% 30.04 in 10.0 mi WNW 4.6 mph - N/A   Clear
10:15 AM 53.6 °F - 33.8 °F 47% 30.04 in 10.0 mi WNW 3.5 mph - N/A   Clear
10:35 AM 55.4 °F - 26.6 °F 33% 30.04 in 10.0 mi WSW 5.8 mph - N/A   Clear
10:55 AM 55.4 °F - 26.6 °F 33% 30.03 in 10.0 mi Calm Calm - N/A   Clear
11:15 AM 55.4 °F - 28.4 °F 36% 30.03 in 10.0 mi NNE 3.5 mph - N/A   Clear
11:35 AM 57.2 °F - 26.6 °F 31% 30.02 in 10.0 mi SSE 4.6 mph - N/A   Clear
11:55 AM 59.0 °F - 28.4 °F 31% 30.01 in 10.0 mi West 3.5 mph - N/A   Clear
12:15 PM 59.0 °F - 26.6 °F 29% 30.00 in 10.0 mi Calm Calm - N/A   Clear
12:35 PM 60.8 °F - 28.4 °F 29% 30.00 in 10.0 mi South 5.8 mph - N/A   Clear
12:55 PM 62.6 °F - 30.2 °F 30% 29.99 in 10.0 mi Calm Calm - N/A   Clear
1:15 PM 62.6 °F - 28.4 °F 27% 29.98 in 10.0 mi Calm Calm - N/A   Clear
1:35 PM 64.4 °F - 30.2 °F 28% 29.97 in 10.0 mi SSW 11.5 mph - N/A   Clear
1:55 PM 64.4 °F - 32.0 °F 30% 29.96 in 10.0 mi SSW 13.8 mph 19.6 mph N/A   Clear
2:15 PM 64.4 °F - 32.0 °F 30% 29.95 in 10.0 mi SSW 9.2 mph 16.1 mph N/A   Clear
2:35 PM 68.0 °F - 32.0 °F 26% 29.95 in 10.0 mi South 11.5 mph 16.1 mph N/A   Clear
2:55 PM 68.0 °F - 32.0 °F 26% 29.94 in 10.0 mi South 11.5 mph 17.3 mph N/A   Clear
3:15 PM 68.0 °F - 32.0 °F 26% 29.93 in 10.0 mi South 12.7 mph 23.0 mph N/A   Clear
3:35 PM 68.0 °F - 32.0 °F 26% 29.93 in 10.0 mi SSE 9.2 mph 20.7 mph N/A   Clear
3:55 PM 68.0 °F - 32.0 °F 26% 29.92 in 10.0 mi South 8.1 mph 18.4 mph N/A   Clear
4:15 PM 69.8 °F - 32.0 °F 25% 29.91 in 10.0 mi South 9.2 mph - N/A   Clear
4:35 PM 69.8 °F - 33.8 °F 27% 29.90 in 10.0 mi South 4.6 mph - N/A   Clear
4:55 PM 69.8 °F - 33.8 °F 27% 29.90 in 10.0 mi ESE 4.6 mph - N/A   Clear
5:15 PM 68.0 °F - 33.8 °F 28% 29.90 in 10.0 mi Calm Calm - N/A   Clear
5:35 PM 68.0 °F - 33.8 °F 28% 29.90 in 10.0 mi Calm Calm - N/A   Clear
5:55 PM 62.6 °F - 33.8 °F 34% 29.90 in 10.0 mi North - - N/A   Clear
6:15 PM 60.8 °F - 33.8 °F 36% 29.90 in 10.0 mi North - - N/A   Clear
6:35 PM 59.0 °F - 32.0 °F 36% 29.90 in 10.0 mi North - - N/A   Clear
6:55 PM 55.4 °F - 32.0 °F 41% 29.90 in 10.0 mi ESE 8.1 mph - N/A   Clear
7:15 PM 55.4 °F - 32.0 °F 41% 29.90 in 10.0 mi East 9.2 mph - N/A   Clear
7:35 PM 57.2 °F - 32.0 °F 38% 29.90 in 10.0 mi East 10.4 mph - N/A   Clear
7:55 PM 53.6 °F - 32.0 °F 44% 29.90 in 10.0 mi ESE 8.1 mph - N/A   Clear
8:15 PM 53.6 °F - 32.0 °F 44% 29.90 in 10.0 mi East 9.2 mph - N/A   Clear
8:35 PM 53.6 °F - 32.0 °F 44% 29.89 in 10.0 mi North - - N/A   Clear
8:55 PM 53.6 °F - 32.0 °F 44% 29.88 in 10.0 mi North - - N/A   Clear
9:15 PM 53.6 °F - 32.0 °F 44% 29.88 in 10.0 mi NNE 3.5 mph - N/A   Clear
9:35 PM 51.8 °F - 32.0 °F 47% 29.88 in 10.0 mi North - - N/A   Clear
9:55 PM 51.8 °F - 33.8 °F 50% 29.88 in 10.0 mi North - - N/A   Clear
10:15 PM 50.0 °F - 33.8 °F 54% 29.88 in 10.0 mi ESE 3.5 mph - N/A   Clear
10:35 PM 50.0 °F - 33.8 °F 54% 29.88 in 10.0 mi SSE 3.5 mph - N/A   Clear
10:55 PM 50.0 °F - 33.8 °F 54% 29.87 in 10.0 mi Calm Calm - N/A   Clear
11:15 PM 50.0 °F - 33.8 °F 54% 29.87 in 10.0 mi NNW 3.5 mph - N/A   Clear
11:35 PM 48.2 °F - 33.8 °F 58% 29.88 in 10.0 mi NNE 3.5 mph - N/A   Clear
11:55 PM 46.4 °F - 33.8 °F 62% 29.87 in 10.0 mi Calm Calm - N/A   Clear